Temp_Advection
nan nan nan nan nan nan nan nan nan nan nan nan nan nan nan nan nan nan nan nan nan nan nan nan nan nan nan nan nan nan nan nan nan nan nan nan nan nan nan nan nan nan nan nan nan nan nan nan nan nan nan nan nan nan nan nan nan nan nan nan nan nan nan nan nan nan nan nan nan
nan 0 0 0 0 0 0 0 0 -0 -0 -0 -0 -0 0 0 -0 -0 -0 0 0 0 0 0 0 0 0 0 -0 -0 0 -0 -0 -0 -0 -0 0 0 0 0 0 0 -0 0 0 0 0 0 0 0 0 -0 -0 -0 -0 0 0 0 0 0 0 0 -0 -0 -0 0 -0 -0 nan
nan 0 0 0 0 0 0 0 0 0 -0 -0 -0 -0 -0 -0 -0 0 0 0 0 0 0 0 0 0 0 -0 -0 0 0 -0 -0 -0 -0 -0 0 0 0 0 0 0 -0 -0 -0 -0 0 0 0 0 0 -0 -0 -0 -0 0 0 0 0 0 0 0 0 -0 -0 -0 -0 -0 nan
nan 0 0 0 0 0 0 0 0 0 0 0 0 -0 -0 -0 -0 0 0 0 0 -0 0 0 0 0 0 0 0 0 0 -0 -0 -0 -0 -0 -0 0 0 0 0 0 0 -0 -0 -0 -0 0 0 0 0 -0 -0 -0 0 0 0 0 0 0 0 0 0 -0 0 0 -0 -0 nan
nan 0 0 0 0 0 0 0 0 0 0 0 0 -0 -0 -0 -0 -0 -0 0 0 0 0 0 0 0 -0 -0 0 0 0 -0 -0 -0 -0 -0 -0 -0 -0 0 0 0 0 0 -0 -0 -0 -0 0 0 0 -0 -0 -0 0 0 0 0 0 0 0 0 -0 -0 0 -0 -0 -0 nan
nan -0 0 0 0 0 0 0 0 0 0 0 -0 -0 -0 -0 -0 -0 0 0 0 0 0 0 0 0 -0 0 0 0 -0 -0 -0 -0 0 0 -0 -0 -0 -0 -0 0 0 0 0 -0 -0 -0 -0 -0 -0 -0 -0 -0 0 0 0 0 0 -0 -0 -0 -0 -0 -0 -0 -0 -0 nan
nan -0 -0 0 0 0 0 0 0 0 0 0 0 -0 -0 -0 -0 -0 0 0 0 0 0 0 0 0 0 0 0 -0 -0 -0 -0 -0 0 0 0 -0 -0 -0 -0 -0 0 0 0 0 -0 -0 -0 -0 -0 -0 -0 -0 -0 0 0 0 0 -0 -0 -0 -0 -0 -0 -0 -0 -0 nan
nan -0 0 0 0 0 0 0 0 0 0 0 0 0 -0 -0 -0 -0 0 0 0 0 0 0 0 0 0 0 0 0 -0 -0 -0 -0 -0 -0 -0 0 -0 -0 -0 -0 -0 -0 -0 -0 0 0 0 0 0 -0 -0 -0 -0 -0 0 0 0 0 -0 -0 -0 -0 -0 -0 -0 -0 nan
nan -0 -0 0 0 0 0 0 0 0 0 0 0 0 -0 -0 -0 -0 0 0 0 0 0 0 0 0 0 0 0 0 0 0 -0 -0 -0 -0 -0 -0 -0 -0 -0 -0 -0 -0 -0 -0 -0 -0 0 0 0 0 -0 -0 -0 -0 -0 -0 0 -0 -0 0 0 0 -0 -0 -0 -0 nan
nan 0 0 0 0 0 0 0 0 0 0 0 0 0 0 -0 -0 -0 -0 -0 -0 0 0 0 0 0 0 0 0 0 0 -0 -0 -0 -0 -0 -0 -0 -0 -0 -0 0 -0 -0 -0 -0 -0 -0 -0 0 0 -0 -0 -0 -0 -0 -0 -0 -0 -0 -0 -0 0 0 0 -0 -0 -0 nan
nan 0 0 0 0 0 0 0 0 0 0 0 0 0 0 0 0 0 0 0 -0 -0 0 0 -0 0 0 0 0 0 0 0 -0 -0 -0 -0 -0 -0 -0 -0 -0 -0 -0 -0 -0 -0 -0 -0 -0 -0 -0 -0 -0 -0 -0 -0 -0 -0 -0 -0 -0 -0 -0 0 0 -0 -0 -0 nan
nan 0 0 0 -0 0 0 0 0 0 0 0 0 0 0 0 0 0 0 0 0 0 -0 -0 -0 0 0 0 0 0 0 0 0 0 0 0 -0 -0 -0 -0 -0 -0 -0 -0 -0 0 0 0 -0 -0 -0 -0 -0 -0 -0 -0 -0 -0 -0 -0 -0 -0 -0 0 0 -0 -0 -0 nan
nan 0 0 0 0 0 0 0 0 0 0 0 0 0 0 0 0 0 0 0 0 0 0 -0 -0 -0 0 0 0 0 0 0 0 0 0 0 -0 0 0 0 0 -0 -0 -0 0 0 0 0 0 -0 -0 -0 -0 -0 -0 -0 -0 -0 -0 -0 -0 -0 -0 -0 -0 -0 -0 -0 nan
nan 0 0 0 0 0 0 0 0 0 0 0 0 0 0 0 -0 -0 0 0 0 0 0 -0 -0 0 0 0 0 0 0 0 0 0 0 0 0 0 0 0 0 -0 -0 -0 -0 -0 0 0 0 -0 -0 -0 -0 -0 -0 -0 -0 -0 -0 -0 -0 -0 -0 -0 -0 -0 -0 -0 nan
nan -0 -0 0 0 0 0 0 0 0 0 0 0 0 0 0 0 -0 -0 -0 -0 -0 -0 0 0 0 0 0 0 0 0 0 0 0 0 0 0 0 0 0 0 0 -0 0 0 0 0 0 0 -0 -0 -0 -0 -0 -0 -0 -0 -0 -1 -1 -1 -1 -1 -0 -0 -0 -1 -1 nan
nan 0 -0 0 0 0 0 0 0 0 0 0 0 0 0 0 0 0 0 0 0 -0 -0 -0 0 0 0 0 0 0 0 0 0 0 0 0 0 0 0 0 0 0 -0 0 0 0 0 -0 -0 -0 -0 -0 -0 -0 -0 -0 -0 -0 -1 -1 -1 -1 -1 -1 -0 -1 -1 -1 nan
nan 0 0 -0 -0 0 0 0 0 0 0 0 0 0 0 0 0 0 0 0 0 -0 -0 -0 -0 0 0 0 0 0 0 0 0 0 0 -0 0 0 0 0 0 0 0 0 0 0 0 0 -0 -0 -0 -0 -0 -0 -0 -0 -0 -1 -1 -1 -1 -1 -1 -0 -0 -1 -1 -1 nan
nan 0 0 0 0 0 0 0 0 0 0 0 0 0 0 0 0 0 0 0 0 0 0 0 -0 0 0 0 0 0 0 0 0 0 0 0 -0 -0 0 0 0 0 0 -0 0 0 0 0 0 0 -0 -0 -0 -0 -0 -0 -0 -0 -1 -1 -1 -1 -1 -0 -0 -0 -1 -0 nan
nan 0 0 0 0 0 0 0 0 0 0 0 0 0 0 0 0 0 0 0 0 -0 0 0 0 0 0 0 0 0 0 0 0 0 -0 0 -0 -0 0 0 0 0 -0 0 0 0 0 0 0 0 -0 -0 -0 -0 -0 -0 -0 -0 -1 -1 -1 -1 -1 -0 -0 -0 -0 -0 nan
nan 0 0 0 0 0 0 0 0 0 0 0 0 0 0 0 0 0 0 0 0 -0 -0 0 0 0 0 0 0 0 0 0 -0 0 0 -0 -0 -0 -0 -0 -0 0 0 0 0 0 0 0 0 0 -0 -0 -0 -0 -0 -0 -0 -0 -0 -0 -0 -1 -1 -0 -0 -0 -0 -0 nan
nan 0 0 0 0 0 0 0 0 0 0 0 0 0 0 0 0 0 0 0 0 0 0 0 0 0 0 0 0 0 0 0 -0 0 0 -0 -0 -0 -0 -0 -0 0 0 0 0 0 0 0 0 0 -0 -0 -0 -0 -0 -0 -0 -0 -0 -0 -0 -1 -1 -0 -0 -0 -0 0 nan
nan 0 0 0 0 0 0 0 0 0 0 0 0 0 0 0 0 0 0 0 0 0 0 0 0 0 0 0 0 0 0 0 0 -0 0 -0 -0 -0 -0 -0 -0 0 0 0 0 0 0 0 0 0 -0 -0 -0 -0 -0 -0 -0 -0 -0 -0 -0 -0 -1 -1 -0 -0 -0 0 nan
nan 0 0 0 0 0 0 0 0 0 0 0 0 0 0 0 0 0 0 0 0 0 0 0 0 0 0 0 0 0 0 0 0 -0 -0 -0 -0 -0 -0 -0 -0 0 0 0 0 0 0 0 0 -0 -0 -0 -0 -0 -0 -0 -0 -0 -0 -0 -0 -0 -0 -0 -0 -0 -0 -0 nan
nan 0 0 0 0 0 0 0 0 0 0 0 0 0 -0 0 0 0 0 0 0 0 0 0 0 0 0 0 0 0 0 0 0 0 -0 -0 -0 -0 -0 -0 -0 0 0 0 0 0 0 0 0 -0 -0 -0 -0 -0 -0 -0 -0 -0 -0 -0 -0 0 0 -0 -0 -0 -0 -0 nan
nan 0 0 1 1 1 0 1 0 0 0 0 0 0 0 0 0 -0 0 0 0 0 0 0 0 0 0 0 0 0 0 0 0 -0 -0 -0 -0 -0 -0 -0 0 0 0 0 0 0 0 0 0 -0 -0 -0 -0 -0 -0 -0 -0 -0 -0 -0 -0 -0 0 0 0 -0 -0 -0 nan
nan 0 0 1 1 1 0 1 0 0 0 0 0 0 0 0 0 0 0 0 0 0 0 0 0 0 0 0 0 0 0 0 0 -0 -0 -0 -0 -0 -0 -0 0 0 0 0 0 0 0 -0 -0 -0 -0 -0 -0 -0 -0 -0 -0 -0 -0 -0 -1 -1 -0 0 0 0 0 -0 nan
nan 1 1 1 1 0 1 1 0 0 0 0 0 0 0 0 0 0 0 0 0 0 0 0 0 0 0 0 0 0 0 -0 -0 -0 -0 -0 -0 -0 -0 -0 -0 0 0 0 0 0 0 0 -0 -0 -0 -0 -0 -0 -0 -0 -0 -0 -0 -0 -0 -1 -1 -0 0 0 0 0 nan
nan 1 1 1 1 1 1 1 1 0 0 0 0 0 0 0 0 0 0 0 0 0 0 0 0 0 0 0 0 0 0 0 0 0 -0 -0 0 0 0 -0 -0 -0 -0 0 0 0 0 0 -0 -0 -0 -0 -0 -0 -0 -0 -0 -0 -0 -0 -0 -1 -1 -1 -0 -0 0 0 nan
nan 1 1 1 1 1 1 1 1 1 1 0 0 0 0 0 0 0 0 0 0 0 0 0 0 0 0 0 0 0 0 0 0 0 0 -0 0 0 0 0 -0 -0 -0 0 0 0 0 0 -0 -0 -0 -0 -0 -0 -0 -0 -0 -0 -0 -0 -0 -0 -0 -0 -0 -0 -0 0 nan
nan 0 1 1 1 1 1 1 1 1 1 1 0 0 0 0 0 0 0 0 0 0 0 0 0 0 0 0 0 0 0 0 0 0 0 0 0 0 0 0 0 -0 -0 0 0 0 -0 -0 -0 -0 -0 -0 -0 -0 -0 -0 -0 -0 -0 -0 -0 -0 -0 -0 -0 -0 0 0 nan
nan 0 0 0 1 1 1 1 1 1 1 1 0 1 0 0 0 0 0 0 0 0 0 0 0 0 0 0 0 0 0 0 0 0 0 0 0 0 0 0 0 0 0 0 0 -0 -0 -0 -0 -0 -0 -0 -0 -0 -0 -0 -0 -0 -0 -0 -0 -0 -0 -0 -0 -0 0 0 nan
nan 0 0 0 0 1 1 1 1 1 1 1 1 1 1 1 1 1 0 0 0 0 0 0 0 0 0 0 0 0 0 0 0 0 0 0 0 0 0 0 0 0 -0 -0 0 -0 -0 -0 -0 -0 -0 -0 -0 -0 -0 -0 -0 -0 -0 -0 -0 -0 -0 -1 -0 -0 -0 0 nan
nan 0 0 0 0 1 1 1 1 1 1 1 1 1 1 1 1 1 0 0 0 0 0 0 0 0 0 0 0 0 0 0 0 0 0 0 0 0 0 0 0 -0 -0 -0 -0 -0 -0 -0 -0 -0 -0 -0 -0 -0 -0 0 -0 -0 -0 -0 -0 -0 -0 -0 -0 -0 -0 0 nan
nan 0 0 0 0 0 1 1 1 1 0 1 1 1 1 1 1 1 1 0 0 0 0 0 0 0 0 0 0 0 0 0 0 0 0 0 0 0 0 0 0 -0 -0 -0 -0 0 0 0 0 -0 -0 -0 -0 -0 -0 0 -0 -0 -0 -0 -0 -0 -0 -0 -0 -0 -0 0 nan
nan 0 0 0 0 0 0 1 1 0 0 1 1 1 1 1 1 1 1 0 0 0 0 0 0 0 0 0 0 0 0 0 0 0 0 0 -0 -0 -0 -0 -0 -0 -0 -0 0 0 0 0 0 -0 -0 -0 -0 -0 0 0 0 -0 -0 -0 -0 -0 -0 -0 -0 -0 -0 0 nan
nan 0 0 0 0 0 0 1 0 0 0 1 1 1 1 1 1 1 1 0 0 0 0 1 1 0 0 0 0 0 0 0 0 0 0 -0 -0 -0 -0 -0 -0 -0 -0 -0 0 0 0 0 0 0 -0 -0 -0 0 0 -0 -0 -0 -0 0 0 -0 -0 -0 -0 -0 -0 0 nan
nan 0 0 0 0 0 1 1 0 0 0 1 1 1 1 1 1 1 1 0 0 0 1 1 0 0 0 0 0 0 0 0 0 0 0 -0 -0 -0 -0 -0 -0 -0 -0 -0 -0 0 0 0 0 0 0 -0 -0 -0 -0 -0 -0 -0 -0 -0 0 0 -0 -0 -0 -0 -0 -0 nan
nan 1 1 0 0 0 0 0 0 0 0 1 1 1 1 1 1 1 1 0 0 1 1 1 0 0 0 0 0 0 0 0 0 0 0 -0 -0 -0 -0 -0 -0 -0 -0 -0 -0 0 0 0 0 0 0 -0 -0 -0 -0 -0 -0 -0 -0 -0 0 0 0 -0 -0 -1 -0 -0 nan
nan 1 1 0 0 0 0 0 0 0 1 1 1 1 1 1 1 1 1 0 0 1 0 1 1 0 0 0 0 0 0 0 0 -0 -0 -0 -0 -0 -0 0 0 0 -0 -0 -0 0 0 0 0 0 -0 -0 -0 -0 -0 -0 -0 -0 -0 -0 0 0 0 -0 -1 -1 -1 -0 nan
nan 1 1 0 0 0 0 0 0 1 1 1 1 1 1 1 1 1 1 0 0 0 1 1 1 1 0 0 0 0 0 0 0 -0 -0 -0 -0 -0 -0 -0 0 0 0 -0 -0 -0 0 0 0 0 -0 -0 -0 -0 -0 -0 -0 -0 -0 -0 -0 0 1 1 -0 -1 -1 -1 nan
nan nan nan nan nan nan nan nan nan nan nan nan nan nan nan nan nan nan nan nan nan nan nan nan nan nan nan nan nan nan nan nan nan nan nan nan nan nan nan nan nan nan nan nan nan nan nan nan nan nan nan nan nan nan nan nan nan nan nan nan nan nan nan nan nan nan nan nan nan
Wind_Speed
9 8 8 8 7 7 7 7 7 7 7 7 8 8 8 8 8 8 8 8 8 8 8 8 8 8 8 8 9 9 9 9 9 10 10 10 10 10 10 10 10 10 9 9 9 9 9 10 10 10 10 11 11 11 11 10 10 10 11 11 12 12 13 13 14 15 16 16 16
9 9 8 8 8 8 8 8 8 8 8 9 9 9 9 9 9 10 10 9 9 9 9 9 9 9 9 9 10 10 10 10 10 10 10 10 10 10 10 9 9 9 9 9 9 9 9 10 10 10 10 11 11 12 11 10 10 10 11 12 12 13 13 14 15 15 16 16 16
10 9 9 9 9 9 9 9 9 9 9 10 10 10 10 11 11 11 11 11 11 11 11 10 10 10 10 10 10 10 10 10 10 10 10 10 10 9 9 9 9 9 9 9 9 9 9 9 10 10 10 11 11 12 11 11 11 11 11 12 12 13 13 14 15 15 16 16 16
10 10 10 10 10 10 10 10 10 10 10 11 11 11 12 12 12 12 12 12 12 12 11 11 11 11 11 11 10 10 10 10 9 9 9 9 9 9 9 9 8 8 9 9 9 9 9 10 10 10 10 11 11 11 11 11 11 11 12 12 13 13 14 14 15 15 15 15 16
11 11 11 11 10 10 10 10 11 11 11 11 12 12 13 13 13 13 13 13 13 12 12 11 11 11 11 11 10 10 9 9 9 9 9 9 9 9 9 8 8 8 8 9 9 9 9 10 10 10 10 11 11 11 11 11 11 11 12 12 13 13 14 14 14 15 15 15 16
12 11 11 11 11 11 11 11 11 11 11 12 12 13 13 13 13 13 13 13 13 12 12 11 11 11 11 10 10 10 9 9 9 9 9 9 9 9 8 8 8 8 9 8 9 9 9 10 10 10 10 11 11 11 11 11 11 11 12 12 13 13 13 14 14 14 15 15 16
12 12 12 12 12 12 12 12 12 12 12 12 12 13 13 13 13 13 13 13 13 12 12 11 11 11 10 10 10 9 9 9 9 9 9 9 9 8 9 9 9 9 9 9 9 9 9 9 9 10 10 11 11 11 11 11 11 11 12 12 13 13 13 13 14 14 15 15 16
13 13 13 13 13 12 12 12 12 12 12 12 12 13 13 13 13 13 13 13 13 12 12 12 11 11 10 10 10 10 9 9 9 9 9 9 9 9 9 9 9 9 9 9 9 9 9 9 9 9 10 10 10 11 11 11 11 11 11 12 12 13 13 13 14 14 15 15 16
14 14 14 13 13 13 13 13 13 12 12 12 12 12 13 13 13 13 13 13 13 13 12 12 12 11 11 10 10 10 10 10 10 9 9 9 9 9 9 9 9 9 9 9 9 9 9 9 9 9 9 10 10 10 10 10 10 11 11 12 12 12 13 13 14 14 15 16 16
15 14 14 14 14 14 13 13 13 13 13 13 13 13 13 13 13 13 13 13 13 13 13 12 12 11 11 11 10 10 10 10 10 10 10 10 10 10 10 10 10 10 10 10 10 10 9 10 9 9 9 9 10 10 10 10 10 11 11 12 12 12 13 13 14 14 15 16 16
16 15 15 15 15 14 14 14 14 13 13 13 13 13 13 13 13 13 13 13 13 13 13 13 12 12 12 11 11 11 11 10 10 10 10 10 10 10 10 10 10 10 10 10 10 10 10 10 9 9 9 9 10 10 10 10 11 11 11 12 12 12 13 14 14 15 15 16 17
16 16 16 16 16 15 15 15 14 14 14 14 13 13 13 13 13 13 13 13 13 13 13 13 13 12 12 12 12 11 11 11 11 11 11 11 11 11 11 11 11 11 11 10 10 10 10 10 10 9 9 9 9 10 10 10 11 11 12 12 12 13 13 14 15 15 16 17 18
17 17 17 17 16 16 16 15 15 15 15 14 14 14 14 14 14 14 14 13 14 14 14 13 13 13 13 13 12 12 12 12 12 12 12 12 12 12 11 11 11 11 11 11 11 10 10 10 10 9 9 9 9 10 10 10 11 11 12 13 13 14 14 15 15 16 17 18 18
18 18 17 17 17 17 17 16 16 16 15 15 14 14 14 14 14 14 14 14 14 14 14 14 14 14 14 13 13 13 13 13 13 13 13 13 12 12 12 12 12 12 12 11 11 11 10 10 10 10 9 9 9 10 10 10 11 11 12 13 14 14 15 15 16 17 18 18 19
18 18 18 18 18 17 17 17 17 16 16 15 15 15 15 15 15 15 15 15 15 15 15 15 15 14 14 14 14 14 13 13 13 13 13 13 13 13 13 12 12 12 12 12 12 11 11 10 10 10 10 10 10 10 10 10 11 12 12 13 14 15 15 16 17 17 18 18 19
18 18 18 18 18 18 18 17 17 17 16 16 16 16 15 15 15 15 15 15 15 15 15 15 15 15 15 15 14 14 14 14 14 14 14 14 14 14 13 13 13 13 13 12 12 11 11 11 10 10 10 10 10 10 10 11 11 12 13 13 14 15 15 16 17 18 18 19 19
19 19 19 19 18 18 18 18 18 17 17 17 17 17 16 16 16 16 16 16 16 16 16 16 16 15 15 15 15 15 15 14 14 14 14 14 14 14 14 14 13 13 13 13 12 12 11 11 11 10 10 10 10 10 10 11 11 12 13 14 14 15 15 16 17 18 19 19 19
19 19 19 19 19 19 19 18 18 18 18 18 18 17 17 17 17 16 16 16 16 16 16 16 16 16 16 16 15 15 15 15 15 15 15 15 15 15 14 14 14 14 13 13 13 12 12 11 11 10 10 10 10 10 10 11 12 12 13 14 14 15 15 16 17 18 19 19 19
20 20 19 19 19 19 19 19 19 19 18 18 18 18 18 18 17 17 17 17 17 17 16 16 16 16 16 16 16 15 15 15 15 15 15 15 15 15 15 15 14 14 14 13 13 12 12 11 11 10 10 10 10 10 11 11 12 12 13 13 14 15 16 16 17 18 18 19 19
19 20 20 19 19 19 19 19 19 19 19 19 19 19 18 18 18 18 17 17 17 17 17 17 17 17 16 16 16 16 16 15 15 15 15 15 15 15 15 15 15 14 14 13 13 12 12 11 11 10 10 10 10 11 11 11 12 12 13 13 14 15 16 17 17 18 18 18 18
19 19 19 19 20 20 20 20 20 20 19 19 19 19 19 18 18 18 18 18 18 18 17 17 17 17 17 16 16 16 16 16 16 15 15 15 15 15 15 15 15 15 14 14 13 12 12 11 11 10 10 10 10 11 11 11 12 12 13 13 14 15 16 17 17 18 18 18 18
18 18 19 19 19 19 19 20 20 20 20 19 19 19 19 19 18 18 18 18 18 18 18 18 18 17 17 17 16 16 16 16 16 16 16 15 15 15 15 15 15 15 14 14 13 12 12 11 10 10 10 10 10 11 11 11 11 12 13 14 15 16 16 17 17 17 17 17 17
17 18 18 18 19 19 19 19 19 19 19 19 19 19 19 19 19 19 19 19 19 19 18 18 18 18 17 17 17 16 16 16 16 16 16 15 15 15 15 15 15 15 14 14 13 12 12 11 11 10 10 11 11 11 11 11 12 12 13 14 15 16 16 17 17 17 17 17 17
17 17 18 18 18 18 19 19 19 19 19 19 19 19 19 19 19 19 19 19 19 19 19 18 18 18 18 17 17 17 17 16 16 16 16 15 15 15 15 15 15 15 14 13 13 12 11 11 11 11 11 11 11 11 11 11 12 12 13 14 14 15 16 17 17 17 17 17 17
17 17 17 18 18 18 18 19 19 19 19 19 19 19 19 19 19 19 19 19 19 19 19 19 18 18 18 18 17 17 17 16 16 16 16 15 15 15 15 15 15 14 13 13 12 12 11 11 11 11 11 11 12 12 12 12 12 12 13 14 15 15 16 16 17 17 17 17 17
17 17 17 17 17 18 18 18 18 19 19 19 19 19 19 19 19 19 19 19 19 19 19 19 18 18 18 18 17 17 17 16 16 16 16 16 16 16 15 15 15 14 13 12 11 11 11 11 11 11 12 12 12 12 12 12 12 13 13 14 14 15 16 16 17 17 17 16 16
18 17 17 17 17 17 18 18 18 18 19 19 19 19 19 19 19 19 19 19 19 19 19 19 18 18 18 18 18 17 17 16 16 16 16 16 16 15 15 15 14 13 12 12 11 11 11 11 11 12 12 12 12 12 12 12 13 13 13 14 14 15 16 16 17 17 17 17 16
18 18 18 18 18 18 18 18 18 18 18 18 19 19 19 19 19 19 19 19 19 19 19 18 18 18 18 18 18 17 17 17 16 16 16 16 16 15 15 14 14 13 12 11 11 10 11 11 11 12 12 13 13 13 13 13 13 13 13 14 14 15 16 16 17 17 17 17 16
19 19 19 19 19 18 18 18 18 18 18 18 18 19 19 19 19 19 19 19 19 18 18 18 18 18 18 18 18 17 17 17 17 16 16 16 15 15 14 13 13 13 12 11 11 11 11 11 12 12 12 13 13 13 13 13 13 13 13 14 14 15 16 17 17 18 17 17 16
19 19 19 19 19 19 19 19 18 18 18 18 18 19 19 19 18 18 18 18 18 18 18 18 18 18 18 18 18 18 17 17 17 16 16 15 15 14 13 13 13 12 12 11 11 11 11 12 12 12 13 13 13 13 13 13 13 14 14 14 15 16 16 17 18 18 18 17 16
20 20 20 20 20 20 19 19 19 19 19 19 19 19 19 19 18 18 18 18 18 18 18 19 19 19 18 18 18 18 18 17 17 16 15 15 14 14 13 13 12 12 12 11 11 11 12 12 12 13 13 13 13 13 14 14 14 14 14 14 15 16 17 18 18 18 17 16 15
21 20 20 20 20 20 20 20 20 20 20 20 20 20 20 19 19 18 18 18 18 18 19 19 19 19 19 18 18 18 17 17 16 15 15 14 14 14 13 13 12 12 12 12 12 12 12 13 13 13 13 13 13 14 14 14 14 14 14 15 15 16 17 18 18 18 17 16 14
21 21 21 20 20 20 20 20 20 20 21 21 21 20 20 20 19 19 19 19 19 19 19 19 19 19 18 18 18 18 17 16 16 15 15 14 14 14 13 13 13 12 12 12 12 13 13 13 13 13 13 13 14 14 14 14 14 14 15 15 16 17 17 18 18 18 17 15 14
22 21 21 21 20 20 20 20 20 21 21 21 21 21 20 20 20 19 19 19 19 19 19 19 19 19 19 18 18 17 17 16 15 15 15 14 14 14 14 13 13 13 13 13 13 13 13 13 13 13 13 14 14 14 14 14 14 14 15 15 16 17 17 18 18 18 17 16 14
22 22 21 21 21 20 20 21 21 21 21 21 21 20 20 20 20 20 20 20 20 20 20 20 19 19 19 18 18 17 16 16 15 15 14 14 14 14 14 14 14 14 14 14 14 13 13 13 13 13 14 14 14 14 14 14 14 14 15 15 16 17 17 17 18 18 17 16 15
23 22 22 21 21 21 21 21 21 21 21 21 21 20 20 20 20 20 20 20 20 20 20 20 19 19 19 18 17 16 16 15 15 15 15 14 14 14 14 14 14 15 15 14 14 14 13 13 13 13 14 14 14 14 14 14 14 14 15 15 16 17 17 17 18 17 17 16 15
23 23 22 22 21 21 21 21 21 21 21 21 20 20 20 20 20 20 20 20 21 20 20 20 19 19 18 18 17 16 16 15 15 15 15 15 15 15 15 15 15 15 15 15 15 14 14 13 13 13 14 14 14 14 14 14 14 15 15 15 16 17 17 17 17 17 17 16 15
24 23 23 22 22 22 22 21 21 21 21 20 20 20 20 20 20 20 20 20 20 20 20 19 19 18 18 17 17 17 16 16 16 16 16 16 15 15 15 15 15 16 15 15 15 15 14 14 14 14 14 14 14 14 14 14 15 15 15 16 17 17 17 17 17 17 17 17 16
24 24 23 23 22 22 22 22 21 21 20 20 20 20 20 20 20 20 20 20 20 20 20 19 19 18 18 17 17 17 17 16 16 16 16 16 16 16 16 16 16 16 16 15 15 15 15 14 14 14 14 14 14 14 14 15 15 16 16 16 17 17 18 17 17 17 17 17 16
25 24 24 23 23 23 22 22 21 21 20 20 20 20 20 20 20 20 20 20 20 20 19 19 18 18 18 18 18 17 17 17 17 17 17 17 17 17 16 16 16 16 16 16 15 15 15 15 14 14 14 14 15 15 15 15 16 16 17 17 17 18 18 18 18 18 18 17 16
25 25 24 24 23 23 23 22 21 21 20 20 20 20 20 20 20 20 20 20 20 19 19 19 18 18 18 18 18 18 18 17 17 17 17 17 17 17 17 17 16 16 16 16 16 15 15 15 15 15 15 15 15 15 15 15 16 17 17 17 17 18 18 18 18 18 18 17 16
Wind_Direction
255 254 253 253 253 255 257 260 262 264 266 268 268 268 267 267 268 268 267 268 268 268 268 268 269 270 270 271 272 273 274 275 276 276 277 278 278 279 280 281 282 283 284 284 284 284 285 285 286 287 288 288 289 291 294 297 297 295 293 293 292 292 292 291 292 294 296 298 299
254 253 254 254 255 257 259 262 265 267 269 270 270 270 270 270 270 271 271 271 271 270 270 270 271 271 271 271 272 273 273 274 275 276 277 277 278 278 279 281 282 283 284 284 284 284 283 283 285 286 287 289 290 292 294 297 297 295 293 292 292 292 291 291 292 293 294 296 298
254 254 255 257 258 260 263 265 267 269 271 272 272 272 272 272 272 272 273 272 272 272 271 271 271 271 270 270 271 271 272 273 274 275 276 276 277 278 278 280 281 282 283 284 284 284 283 284 285 286 288 290 291 294 297 299 298 296 293 292 292 292 291 292 293 294 296 298 299
255 256 258 259 261 263 265 267 268 270 271 272 273 273 273 273 273 273 273 272 272 272 271 271 270 270 269 269 270 270 271 271 272 273 274 274 275 276 276 278 279 280 281 283 284 284 285 286 287 288 289 290 292 295 297 299 297 295 293 292 292 292 292 293 295 296 298 300 301
257 258 260 261 263 264 266 267 269 270 271 271 272 272 273 273 273 273 273 273 272 271 271 270 269 268 268 268 268 268 269 269 270 270 271 272 273 274 276 277 277 278 279 281 283 285 286 288 289 290 290 291 293 295 296 296 295 294 293 292 292 293 294 295 297 299 300 302 303
259 260 261 263 264 265 266 267 268 269 270 270 271 271 271 272 273 273 272 272 271 271 270 269 268 267 266 266 266 267 266 267 267 268 269 270 272 274 276 277 278 279 280 281 283 285 287 289 290 291 292 293 294 295 296 295 295 294 293 293 293 294 296 298 299 300 302 303 304
260 262 263 264 266 267 267 268 269 270 270 271 271 271 272 272 272 272 272 272 271 271 269 268 266 265 265 264 265 265 265 266 267 267 268 270 272 273 275 277 278 280 281 282 283 284 286 288 289 291 292 294 294 295 296 295 295 294 294 294 295 296 298 299 300 302 303 304 304
263 264 265 266 267 268 269 269 270 270 271 272 272 273 273 273 273 273 273 272 271 270 269 267 266 265 264 264 264 265 266 267 268 269 270 271 272 274 275 277 279 281 281 282 283 284 285 286 288 289 290 292 293 294 295 295 295 294 292 292 295 297 298 299 301 302 303 304 305
265 265 266 267 268 269 269 270 270 271 271 272 273 273 274 274 274 274 273 273 271 271 270 268 267 266 265 265 266 267 267 269 270 271 272 273 274 276 277 278 280 281 281 282 283 283 285 286 287 288 288 289 291 292 294 295 295 293 292 292 294 297 299 300 302 303 305 307 308
265 266 267 268 268 269 269 270 271 271 271 271 272 272 273 273 274 274 273 273 272 272 271 270 270 269 269 269 269 269 270 271 272 273 274 275 276 277 278 279 280 280 281 281 282 282 284 285 286 287 288 289 290 292 293 294 295 294 294 295 297 299 301 302 305 308 310 312 313
265 266 266 267 267 268 269 269 270 270 270 270 270 271 271 272 273 273 273 273 273 273 273 272 272 272 272 272 272 272 272 273 274 275 276 277 278 278 280 280 281 280 280 281 281 281 283 284 285 287 288 290 291 293 295 295 296 296 297 299 301 303 305 308 311 314 316 317 319
264 265 265 266 267 267 268 268 269 269 269 269 270 270 271 272 272 272 273 273 273 273 273 274 274 274 274 274 274 275 275 276 277 277 278 279 280 280 281 282 282 282 281 281 281 281 282 283 284 286 289 290 292 294 296 297 298 299 301 304 307 309 312 315 319 321 321 322 322
264 264 265 265 266 266 267 267 267 268 268 269 269 270 271 271 272 272 272 273 273 273 273 274 274 274 275 275 276 277 278 279 279 280 281 281 282 282 282 282 282 282 282 282 282 281 282 283 284 286 289 292 294 295 297 299 301 304 307 310 313 316 319 323 325 325 325 324 323
264 264 264 264 265 266 266 266 266 267 267 267 268 269 270 270 271 272 272 272 272 272 273 273 274 274 275 276 277 278 280 280 281 282 283 283 283 283 283 283 283 283 282 282 282 282 283 284 286 287 290 293 295 298 300 303 306 309 312 316 319 323 326 327 328 327 326 324 323
264 264 264 265 265 265 266 266 266 266 266 267 267 267 268 268 269 270 270 270 271 271 272 273 274 274 275 276 277 279 280 281 282 283 284 284 285 284 284 284 284 283 283 283 283 284 285 286 288 290 292 295 298 301 304 308 311 314 318 322 325 328 329 330 329 327 325 323 321
264 264 265 265 265 265 266 266 266 266 266 266 266 266 266 266 267 267 268 269 270 270 271 272 273 274 275 276 277 278 279 281 282 283 284 285 285 285 285 285 284 284 284 284 285 286 287 288 290 292 294 298 301 305 309 313 316 319 323 327 330 331 331 329 328 326 323 321 319
265 265 265 266 266 266 266 266 266 266 266 266 266 266 266 266 266 266 267 267 268 269 270 271 272 273 274 275 276 277 278 280 281 283 284 285 285 286 286 285 285 285 285 285 286 287 288 289 291 293 297 301 305 309 313 317 320 324 327 329 331 330 329 327 325 323 320 318 316
267 266 266 266 267 267 267 267 267 266 266 266 266 266 266 266 266 266 266 267 267 267 268 269 270 271 272 273 275 276 278 279 281 282 283 284 285 285 285 286 286 286 286 286 287 288 289 290 292 295 300 304 309 312 316 320 323 326 328 330 329 328 326 324 321 319 317 315 313
269 268 268 267 267 267 268 267 267 267 267 266 266 266 266 266 266 266 267 267 267 267 267 268 269 270 271 272 273 275 277 279 280 282 283 283 284 285 285 285 286 286 286 287 288 289 290 291 294 298 302 308 312 315 319 322 324 327 328 329 327 325 323 320 318 316 314 312 311
271 271 270 269 268 268 268 268 268 267 267 267 267 267 267 267 267 267 267 267 267 267 267 268 268 269 270 271 273 275 276 278 279 281 282 283 284 284 285 285 286 286 287 287 288 289 290 293 296 300 305 309 313 316 319 322 324 326 326 325 323 321 319 317 315 313 312 311 309
274 273 272 271 270 270 269 269 268 268 268 268 268 267 267 268 268 268 268 268 268 268 268 268 268 269 270 271 272 274 275 277 278 280 281 282 283 284 284 285 286 286 287 287 289 290 291 293 297 302 306 309 311 314 317 321 323 323 323 321 319 318 316 314 312 312 310 309 308
277 275 275 273 272 271 271 270 269 269 269 269 268 268 268 268 269 269 268 268 268 269 268 268 269 269 270 271 272 273 275 276 277 278 280 281 282 283 284 285 285 286 287 288 288 289 291 295 299 303 306 308 310 312 315 318 320 320 319 318 316 314 313 312 311 310 310 308 308
278 277 276 275 274 273 272 271 270 270 270 270 270 270 270 269 269 269 269 269 269 269 269 269 270 270 270 271 272 273 274 275 277 278 280 281 282 283 284 284 285 285 286 288 288 290 293 297 300 304 305 307 308 310 313 315 316 317 316 314 313 312 311 311 310 310 309 308 307
280 279 278 277 276 275 273 273 272 272 271 271 271 271 271 270 270 270 270 270 270 270 270 270 270 271 271 272 273 273 274 276 277 279 280 281 282 283 283 283 284 284 286 288 290 292 295 298 300 302 303 304 306 308 310 312 313 313 312 311 311 310 310 310 310 310 309 308 308
281 280 279 278 277 276 276 275 274 274 273 273 272 272 271 271 271 270 270 270 270 270 270 271 271 271 272 272 273 274 275 276 278 279 281 281 282 282 282 282 283 284 287 289 292 295 297 299 300 300 301 302 304 306 309 310 310 310 309 309 309 309 309 309 310 309 308 308 308
284 283 281 280 279 278 277 276 276 275 274 273 273 272 271 271 270 270 270 270 270 271 271 271 271 271 271 272 273 274 275 276 278 279 280 281 281 281 281 281 283 285 288 291 294 296 298 299 299 299 300 301 303 304 306 307 308 308 307 308 308 308 308 309 309 309 309 309 309
286 285 284 283 281 279 277 276 275 274 273 273 272 271 271 270 270 270 270 270 270 270 271 271 271 271 271 271 272 273 275 276 278 278 279 279 279 280 280 282 285 287 290 293 294 295 296 296 297 298 298 299 301 302 303 304 305 306 306 307 308 308 308 309 309 310 310 309 308
287 287 286 285 283 281 279 277 275 274 272 271 271 270 270 269 269 269 269 269 270 270 270 270 270 270 270 271 271 273 274 275 276 277 277 277 277 278 281 283 286 289 292 294 296 295 295 294 294 295 296 296 298 299 301 302 303 304 305 306 308 308 309 309 310 310 310 309 307
287 286 286 285 284 283 281 279 277 276 274 272 271 270 269 269 269 269 269 269 270 270 270 270 270 270 270 270 271 271 272 273 274 274 275 276 277 279 282 284 287 290 293 295 296 295 293 292 291 291 292 293 295 297 299 300 301 303 304 306 307 308 309 310 310 310 309 307 305
284 284 284 283 283 283 282 281 280 278 276 275 273 272 271 270 270 270 270 270 270 270 270 269 269 269 269 269 269 270 270 271 271 272 274 276 279 281 284 286 287 290 293 294 294 292 291 289 288 288 289 290 292 294 296 298 300 302 304 305 307 308 309 310 310 310 308 305 302
281 281 282 282 282 282 281 281 280 279 278 277 276 275 274 273 272 272 271 271 271 270 270 270 269 269 268 268 268 268 268 269 270 272 275 277 280 282 284 286 287 289 291 291 290 288 287 286 286 286 286 288 289 292 294 296 299 301 303 305 307 308 309 310 310 308 307 304 301
278 279 279 280 280 280 280 279 279 278 278 278 277 276 276 275 275 274 273 272 271 270 270 269 268 268 268 267 267 267 268 269 271 273 276 278 281 282 284 286 287 288 289 288 287 285 284 283 283 284 285 286 288 290 293 295 297 300 302 304 306 308 309 309 309 308 307 304 301
276 277 277 278 278 278 278 277 276 276 276 276 276 276 276 276 275 274 273 272 271 270 269 268 267 266 266 266 266 266 267 269 272 274 277 279 281 283 284 286 287 287 286 286 284 282 281 281 281 282 283 285 287 289 292 295 297 299 301 304 306 307 308 309 309 309 308 305 303
274 275 276 276 277 276 276 275 275 274 275 275 275 275 275 275 274 273 272 272 271 270 268 267 266 265 264 264 265 266 268 270 272 275 277 279 282 283 285 286 286 285 284 283 281 280 280 279 280 281 282 284 286 289 292 295 297 299 301 304 305 306 308 308 309 309 308 306 304
272 274 275 275 275 275 274 274 273 273 273 273 274 273 273 273 272 272 271 270 269 268 267 265 264 264 263 263 264 266 268 270 273 275 278 280 282 283 284 285 284 283 282 281 280 279 278 278 279 280 281 283 286 289 291 293 296 298 300 303 304 306 306 307 308 308 307 306 304
271 272 273 273 273 273 272 272 272 272 272 272 272 272 272 271 270 269 269 268 267 266 265 265 264 263 263 263 265 266 268 271 273 275 277 279 280 281 282 283 282 281 280 280 279 278 277 277 278 279 281 283 286 288 290 292 294 296 298 301 303 304 305 306 306 307 306 306 304
270 271 272 272 272 272 271 271 271 271 272 272 272 271 270 269 268 267 266 266 265 265 265 264 264 263 263 264 265 266 268 270 272 274 275 277 278 278 279 279 279 279 279 279 279 279 278 278 278 279 280 283 285 287 289 291 293 295 297 300 301 302 303 304 305 306 306 305 305
269 270 270 271 271 271 271 270 271 271 272 272 271 270 269 267 267 266 265 265 265 265 265 264 264 264 264 265 265 266 267 268 270 271 273 274 275 275 276 276 276 277 278 279 280 280 280 279 279 279 280 282 284 286 288 290 292 294 296 298 300 302 303 303 304 305 305 305 305
268 269 269 269 270 270 270 271 271 272 272 272 271 269 268 267 266 265 265 265 265 265 265 265 265 265 265 265 265 266 267 267 269 270 272 273 274 274 274 275 275 276 277 278 279 280 280 280 279 279 280 282 283 285 287 289 291 293 295 297 300 302 302 303 303 304 305 305 305
267 267 268 268 269 269 270 271 272 272 272 271 270 269 268 267 266 266 266 266 266 266 266 266 266 265 265 265 266 266 267 268 269 270 271 273 274 274 274 275 276 276 276 277 278 279 279 279 279 279 280 281 282 284 286 288 290 292 295 297 299 301 302 303 303 303 304 304 304
266 266 266 267 268 269 270 272 272 272 271 270 269 269 268 267 266 265 265 266 266 266 266 266 266 265 265 265 266 266 267 268 268 270 271 272 273 274 275 275 276 276 276 276 277 278 278 278 278 278 279 280 281 283 285 287 289 292 295 298 299 300 301 302 303 303 303 303 304
Height
1511 1511 1511 1511 1511 1511 1511 1511 1511 1511 1511 1511 1511 1511 1511 1511 1510 1510 1510 1510 1510 1509 1509 1509 1509 1509 1509 1508 1508 1508 1508 1507 1507 1507 1507 1506 1506 1506 1506 1505 1505 1505 1505 1505 1505 1504 1504 1504 1503 1503 1502 1502 1502 1501 1501 1502 1502 1501 1501 1501 1500 1500 1500 1499 1499 1499 1498 1498 1498
1510 1510 1510 1510 1510 1510 1510 1510 1510 1510 1510 1510 1510 1510 1510 1510 1510 1510 1509 1509 1509 1509 1509 1508 1508 1508 1508 1507 1507 1507 1507 1506 1506 1506 1506 1506 1505 1505 1505 1505 1504 1504 1504 1504 1504 1503 1503 1503 1502 1502 1501 1501 1501 1501 1501 1501 1501 1500 1500 1500 1499 1499 1499 1498 1498 1498 1497 1497 1497
1509 1509 1509 1509 1509 1509 1509 1509 1509 1509 1509 1509 1509 1509 1509 1509 1509 1509 1509 1509 1508 1508 1508 1508 1507 1507 1507 1507 1506 1506 1506 1506 1506 1505 1505 1505 1504 1504 1504 1504 1503 1503 1503 1503 1502 1502 1502 1502 1501 1501 1501 1500 1500 1500 1500 1500 1500 1499 1499 1498 1498 1498 1498 1497 1497 1497 1496 1496 1496
1509 1509 1509 1509 1509 1509 1509 1509 1509 1508 1509 1509 1508 1508 1508 1508 1508 1508 1508 1508 1508 1507 1507 1507 1507 1506 1506 1506 1506 1505 1505 1505 1505 1504 1504 1504 1504 1503 1503 1503 1502 1502 1502 1502 1501 1501 1501 1501 1500 1500 1500 1499 1499 1499 1499 1499 1498 1498 1498 1497 1497 1497 1496 1496 1496 1496 1495 1495 1495
1508 1508 1508 1508 1508 1508 1508 1508 1508 1508 1508 1508 1508 1507 1507 1507 1507 1507 1507 1507 1507 1506 1506 1506 1506 1506 1505 1505 1505 1505 1504 1504 1504 1504 1503 1503 1503 1502 1502 1502 1501 1501 1501 1501 1501 1500 1500 1499 1499 1499 1498 1498 1498 1498 1498 1498 1497 1497 1496 1496 1496 1496 1495 1495 1495 1494 1494 1494 1493
1507 1507 1507 1507 1507 1507 1507 1507 1507 1507 1507 1507 1507 1506 1506 1506 1506 1506 1506 1506 1506 1506 1506 1506 1505 1505 1505 1504 1504 1504 1504 1503 1503 1503 1502 1502 1502 1501 1501 1501 1501 1500 1500 1500 1499 1499 1499 1498 1498 1498 1497 1497 1497 1496 1496 1496 1496 1496 1496 1495 1495 1495 1494 1494 1493 1493 1493 1492 1492
1506 1506 1506 1506 1506 1506 1506 1506 1506 1506 1506 1506 1506 1506 1506 1506 1506 1506 1505 1505 1505 1505 1505 1505 1505 1504 1504 1504 1503 1503 1503 1503 1502 1502 1502 1501 1501 1501 1500 1500 1500 1499 1499 1499 1498 1498 1497 1497 1497 1496 1496 1496 1496 1496 1495 1495 1495 1495 1494 1494 1494 1493 1493 1492 1492 1492 1491 1491 1491
1506 1506 1506 1505 1505 1505 1505 1505 1505 1505 1505 1505 1505 1505 1505 1505 1505 1505 1504 1504 1504 1504 1504 1504 1504 1504 1503 1503 1503 1502 1502 1502 1501 1501 1501 1501 1500 1500 1499 1499 1498 1498 1498 1497 1497 1497 1496 1496 1496 1495 1495 1495 1495 1494 1494 1494 1494 1494 1493 1493 1492 1492 1492 1491 1491 1491 1490 1490 1490
1505 1505 1505 1505 1504 1504 1504 1504 1504 1504 1504 1504 1504 1504 1504 1504 1504 1504 1504 1504 1503 1503 1503 1503 1503 1503 1503 1502 1502 1502 1501 1501 1501 1500 1500 1500 1499 1499 1498 1498 1497 1497 1496 1496 1496 1496 1495 1495 1495 1494 1494 1494 1493 1493 1493 1493 1493 1492 1492 1492 1491 1491 1491 1490 1490 1489 1489 1489 1488
1504 1504 1503 1503 1503 1503 1503 1503 1503 1503 1503 1503 1503 1503 1503 1503 1503 1503 1503 1503 1503 1502 1502 1502 1502 1502 1502 1501 1501 1501 1501 1500 1500 1500 1499 1499 1498 1498 1497 1497 1496 1496 1496 1495 1495 1494 1494 1494 1493 1493 1493 1492 1492 1492 1492 1492 1491 1491 1491 1491 1490 1490 1489 1489 1488 1488 1488 1487 1487
1502 1502 1502 1502 1502 1502 1502 1502 1502 1502 1502 1502 1502 1502 1502 1502 1502 1502 1502 1502 1502 1502 1501 1501 1501 1501 1501 1501 1501 1500 1500 1500 1499 1499 1498 1498 1497 1497 1496 1496 1496 1495 1495 1494 1494 1493 1493 1492 1492 1492 1491 1491 1491 1491 1491 1490 1490 1490 1489 1489 1489 1488 1488 1487 1487 1486 1486 1486 1485
1501 1501 1501 1501 1501 1501 1501 1501 1501 1501 1501 1501 1501 1501 1501 1501 1501 1501 1501 1501 1501 1501 1501 1501 1501 1500 1500 1500 1500 1499 1499 1498 1498 1498 1497 1497 1496 1496 1496 1495 1495 1494 1494 1493 1493 1492 1492 1491 1491 1491 1490 1490 1490 1490 1489 1489 1489 1488 1488 1487 1487 1486 1486 1485 1485 1485 1484 1484 1484
1500 1500 1500 1500 1500 1500 1500 1500 1500 1500 1500 1500 1500 1500 1500 1500 1500 1500 1500 1500 1500 1500 1500 1499 1499 1499 1499 1499 1498 1498 1498 1497 1497 1497 1496 1496 1496 1495 1495 1494 1494 1493 1493 1492 1492 1491 1491 1490 1490 1490 1489 1489 1488 1488 1488 1488 1487 1487 1486 1486 1485 1485 1484 1483 1483 1483 1483 1482 1482
1499 1499 1499 1499 1499 1499 1499 1499 1499 1499 1499 1499 1498 1498 1498 1498 1498 1498 1498 1498 1498 1498 1498 1498 1498 1498 1498 1498 1497 1497 1497 1496 1496 1496 1495 1495 1495 1494 1494 1493 1493 1492 1492 1491 1491 1490 1490 1489 1489 1488 1488 1487 1487 1487 1486 1486 1486 1485 1485 1484 1483 1483 1482 1482 1481 1481 1481 1481 1481
1498 1498 1498 1498 1497 1497 1497 1497 1497 1497 1497 1497 1497 1497 1497 1497 1497 1497 1497 1497 1497 1497 1497 1497 1497 1497 1496 1496 1496 1496 1496 1495 1495 1495 1494 1494 1494 1493 1493 1492 1492 1491 1491 1490 1490 1489 1489 1488 1488 1487 1487 1486 1486 1485 1485 1484 1484 1483 1483 1482 1482 1481 1481 1481 1480 1480 1480 1480 1480
1496 1496 1496 1496 1496 1496 1496 1496 1496 1496 1496 1496 1496 1496 1496 1496 1496 1496 1496 1496 1496 1496 1496 1496 1496 1495 1495 1495 1495 1495 1494 1494 1494 1494 1493 1493 1492 1492 1491 1491 1491 1490 1490 1489 1489 1488 1487 1487 1486 1486 1486 1485 1484 1484 1483 1483 1482 1482 1481 1481 1480 1480 1479 1479 1479 1479 1479 1479 1479
1495 1495 1495 1495 1495 1495 1495 1495 1495 1495 1495 1495 1495 1495 1495 1495 1495 1494 1494 1494 1494 1494 1494 1494 1494 1494 1494 1494 1494 1493 1493 1493 1493 1492 1492 1492 1491 1491 1491 1490 1490 1489 1488 1488 1487 1487 1486 1486 1485 1485 1484 1483 1483 1482 1481 1481 1481 1480 1480 1479 1479 1479 1478 1478 1478 1478 1478 1478 1478
1494 1494 1494 1494 1494 1494 1494 1494 1493 1493 1493 1493 1493 1493 1493 1493 1493 1493 1493 1493 1493 1493 1493 1493 1492 1492 1492 1492 1492 1492 1492 1491 1491 1491 1491 1491 1490 1490 1489 1489 1488 1488 1487 1487 1486 1486 1485 1485 1484 1483 1483 1482 1481 1481 1480 1480 1479 1479 1478 1478 1478 1478 1477 1477 1477 1477 1477 1477 1477
1492 1492 1492 1492 1492 1492 1492 1492 1492 1492 1492 1492 1492 1492 1492 1491 1491 1491 1491 1491 1491 1491 1491 1491 1491 1491 1491 1491 1491 1491 1490 1490 1490 1490 1489 1489 1489 1488 1488 1488 1487 1486 1486 1486 1485 1484 1484 1483 1482 1482 1481 1480 1480 1479 1478 1478 1478 1477 1477 1477 1477 1477 1476 1476 1476 1476 1476 1476 1476
1491 1491 1491 1491 1491 1491 1491 1491 1491 1491 1491 1491 1491 1491 1490 1490 1490 1490 1490 1490 1490 1490 1490 1490 1490 1490 1489 1489 1489 1489 1489 1489 1488 1488 1488 1488 1487 1487 1487 1486 1486 1485 1485 1484 1484 1483 1482 1482 1481 1480 1479 1479 1478 1478 1477 1477 1477 1476 1476 1476 1476 1476 1476 1476 1476 1475 1475 1475 1475
1489 1489 1489 1489 1489 1489 1489 1489 1489 1489 1489 1489 1489 1489 1489 1489 1489 1489 1488 1488 1488 1488 1488 1488 1488 1488 1488 1488 1488 1487 1487 1487 1487 1487 1487 1486 1486 1486 1485 1485 1484 1484 1483 1483 1482 1482 1481 1480 1479 1479 1478 1477 1477 1476 1476 1476 1476 1476 1475 1475 1475 1475 1475 1475 1475 1475 1474 1474 1474
1488 1488 1488 1488 1488 1488 1488 1488 1487 1487 1487 1487 1487 1487 1487 1487 1487 1487 1487 1487 1487 1487 1487 1487 1486 1486 1486 1486 1486 1486 1486 1486 1486 1485 1485 1485 1485 1484 1484 1483 1483 1482 1482 1481 1481 1480 1479 1479 1478 1477 1476 1476 1476 1476 1475 1475 1475 1474 1474 1474 1474 1474 1474 1474 1474 1474 1473 1473 1472
1487 1487 1486 1486 1486 1486 1486 1486 1486 1486 1486 1486 1486 1486 1486 1486 1486 1486 1486 1486 1486 1485 1485 1485 1485 1485 1485 1485 1485 1484 1484 1484 1484 1484 1483 1483 1483 1482 1482 1482 1481 1481 1481 1480 1480 1479 1478 1477 1476 1476 1475 1475 1475 1474 1474 1474 1474 1474 1473 1473 1473 1473 1473 1473 1473 1472 1472 1472 1471
1486 1486 1485 1485 1485 1485 1485 1484 1484 1484 1484 1484 1484 1484 1484 1484 1484 1484 1484 1484 1484 1484 1484 1484 1484 1483 1483 1483 1483 1483 1483 1482 1482 1482 1482 1481 1481 1481 1481 1481 1480 1480 1479 1479 1478 1477 1476 1476 1475 1475 1474 1474 1474 1474 1473 1473 1473 1473 1473 1472 1472 1472 1472 1472 1472 1471 1471 1471 1470
1484 1484 1484 1484 1483 1483 1483 1483 1482 1482 1482 1482 1482 1482 1482 1482 1482 1482 1482 1482 1482 1482 1482 1482 1482 1482 1482 1481 1481 1481 1481 1481 1481 1481 1480 1480 1480 1480 1480 1479 1479 1478 1478 1477 1476 1476 1475 1474 1474 1474 1473 1473 1473 1473 1472 1472 1472 1472 1472 1472 1471 1471 1471 1471 1471 1470 1470 1469 1469
1483 1483 1482 1482 1482 1481 1481 1481 1481 1481 1481 1481 1481 1481 1481 1481 1481 1481 1481 1481 1481 1481 1481 1481 1481 1480 1480 1480 1480 1480 1480 1479 1479 1479 1479 1479 1478 1478 1478 1478 1477 1477 1476 1476 1475 1474 1474 1473 1473 1472 1472 1472 1472 1472 1471 1471 1471 1471 1471 1471 1471 1470 1470 1470 1469 1469 1468 1468 1468
1481 1481 1481 1481 1480 1480 1480 1480 1480 1480 1479 1479 1479 1479 1479 1479 1479 1479 1479 1479 1479 1479 1479 1479 1479 1479 1479 1478 1478 1478 1478 1478 1478 1478 1477 1477 1477 1477 1476 1476 1476 1475 1475 1474 1474 1473 1473 1472 1472 1472 1471 1471 1471 1471 1471 1471 1470 1470 1470 1470 1469 1469 1469 1468 1468 1467 1467 1467 1466
1480 1480 1479 1479 1479 1479 1478 1478 1478 1478 1478 1478 1478 1478 1478 1478 1477 1477 1477 1477 1477 1477 1477 1477 1477 1477 1477 1477 1477 1476 1476 1476 1476 1476 1476 1476 1476 1476 1475 1475 1474 1474 1473 1473 1472 1472 1472 1471 1471 1471 1471 1470 1470 1470 1470 1469 1469 1469 1469 1469 1468 1468 1467 1467 1467 1466 1466 1466 1465
1478 1478 1478 1477 1477 1477 1477 1477 1477 1477 1477 1476 1476 1476 1476 1476 1476 1476 1476 1476 1476 1476 1476 1476 1475 1475 1475 1475 1475 1475 1475 1475 1475 1475 1475 1474 1474 1474 1473 1473 1472 1472 1472 1471 1471 1471 1471 1471 1470 1470 1470 1469 1469 1469 1468 1468 1468 1468 1467 1467 1467 1466 1466 1466 1465 1465 1465 1464 1464
1477 1477 1476 1476 1476 1476 1476 1476 1476 1476 1475 1475 1475 1475 1475 1474 1474 1474 1474 1474 1474 1474 1474 1474 1474 1473 1473 1474 1473 1474 1474 1474 1474 1473 1473 1473 1472 1472 1472 1471 1471 1471 1470 1470 1470 1470 1470 1469 1469 1469 1469 1468 1468 1468 1467 1467 1467 1466 1466 1466 1466 1465 1465 1465 1464 1464 1463 1463 1463
1476 1476 1475 1475 1475 1475 1475 1474 1474 1474 1474 1473 1473 1473 1473 1473 1473 1473 1473 1473 1472 1472 1472 1472 1472 1472 1472 1472 1472 1472 1472 1472 1472 1472 1471 1471 1471 1471 1470 1470 1469 1469 1469 1469 1469 1469 1469 1468 1468 1468 1468 1467 1467 1466 1466 1466 1466 1465 1465 1465 1464 1464 1464 1463 1463 1462 1462 1461 1461
1475 1474 1474 1474 1474 1473 1473 1473 1473 1472 1472 1472 1471 1471 1471 1471 1471 1471 1471 1471 1471 1471 1471 1470 1470 1470 1470 1470 1470 1470 1470 1470 1470 1470 1470 1469 1469 1469 1468 1468 1468 1468 1468 1468 1468 1468 1468 1467 1467 1467 1466 1466 1466 1465 1465 1465 1464 1464 1464 1463 1463 1463 1462 1462 1461 1461 1461 1460 1460
1473 1473 1473 1472 1472 1472 1472 1471 1471 1471 1471 1470 1470 1470 1470 1470 1470 1470 1470 1469 1469 1469 1469 1469 1469 1469 1469 1469 1469 1469 1468 1468 1468 1468 1468 1467 1467 1467 1467 1466 1466 1466 1466 1466 1466 1466 1466 1466 1466 1466 1465 1465 1464 1464 1464 1463 1463 1463 1462 1462 1462 1461 1461 1461 1460 1460 1459 1459 1459
1471 1471 1471 1471 1471 1471 1470 1470 1470 1469 1469 1469 1469 1469 1468 1468 1468 1468 1468 1468 1468 1468 1467 1467 1467 1467 1467 1467 1467 1467 1467 1466 1466 1466 1466 1466 1466 1465 1465 1465 1465 1465 1466 1466 1466 1466 1465 1465 1465 1464 1464 1464 1463 1463 1462 1462 1462 1461 1461 1461 1461 1460 1460 1459 1459 1458 1458 1457 1457
1470 1470 1470 1470 1469 1469 1469 1468 1468 1468 1467 1467 1467 1467 1467 1467 1467 1467 1467 1466 1466 1466 1466 1466 1466 1466 1466 1465 1465 1465 1465 1465 1465 1464 1464 1464 1464 1464 1464 1464 1464 1464 1464 1464 1464 1464 1464 1464 1463 1463 1463 1462 1462 1461 1461 1461 1461 1460 1460 1460 1459 1459 1458 1458 1457 1457 1456 1456 1456
1468 1468 1468 1468 1468 1467 1467 1467 1466 1466 1466 1466 1466 1466 1466 1466 1465 1465 1465 1465 1465 1464 1464 1464 1464 1464 1464 1463 1463 1463 1463 1463 1463 1463 1462 1462 1462 1462 1462 1462 1463 1463 1463 1463 1463 1463 1463 1462 1462 1461 1461 1461 1461 1460 1460 1460 1459 1459 1459 1458 1458 1457 1457 1456 1456 1456 1455 1455 1455
1466 1466 1466 1466 1466 1466 1466 1465 1465 1464 1464 1464 1464 1464 1464 1464 1464 1464 1464 1463 1463 1463 1462 1462 1462 1462 1462 1462 1462 1461 1461 1461 1461 1461 1461 1461 1461 1461 1461 1461 1461 1461 1461 1461 1461 1461 1461 1461 1461 1460 1460 1459 1459 1459 1459 1458 1458 1458 1457 1457 1457 1456 1456 1455 1455 1454 1454 1453 1453
1465 1465 1464 1464 1464 1464 1464 1463 1463 1463 1462 1462 1462 1462 1462 1462 1462 1462 1462 1461 1461 1461 1461 1461 1461 1460 1460 1460 1460 1460 1460 1460 1460 1460 1460 1460 1460 1460 1460 1460 1460 1460 1460 1460 1460 1460 1460 1459 1459 1459 1458 1458 1458 1457 1457 1457 1456 1456 1456 1456 1455 1455 1454 1454 1453 1453 1452 1452 1452
1462 1462 1462 1462 1462 1462 1462 1461 1461 1461 1461 1461 1461 1461 1461 1460 1460 1460 1460 1460 1460 1459 1459 1459 1459 1459 1458 1458 1458 1458 1458 1458 1458 1458 1458 1458 1459 1459 1459 1459 1459 1459 1459 1458 1458 1458 1458 1458 1457 1457 1457 1457 1456 1456 1456 1456 1455 1455 1455 1454 1454 1453 1453 1452 1452 1451 1451 1451 1451
1460 1460 1461 1460 1460 1460 1460 1460 1459 1459 1459 1459 1459 1459 1459 1459 1458 1458 1458 1458 1458 1457 1457 1457 1457 1457 1457 1456 1456 1456 1456 1456 1456 1457 1457 1457 1457 1457 1457 1457 1457 1457 1457 1457 1457 1456 1456 1456 1456 1456 1456 1455 1455 1455 1455 1454 1454 1453 1453 1453 1452 1452 1451 1451 1451 1450 1450 1450 1449
1458 1458 1458 1458 1458 1458 1458 1458 1458 1457 1457 1457 1457 1457 1457 1457 1456 1456 1456 1456 1456 1456 1456 1456 1455 1455 1455 1455 1455 1455 1455 1455 1455 1455 1455 1456 1456 1456 1456 1456 1456 1456 1456 1456 1455 1455 1455 1455 1455 1454 1454 1454 1453 1453 1453 1453 1452 1452 1451 1451 1451 1450 1450 1449 1449 1449 1448 1448 1448